This is the latest recevied weather packets stored in our database for station/object 9A3XK-13. If no packets are shown the sender has not sent any weather packets the latest 10 day(s).
| Time | Temp. | Humidity | Pressure | Rain* | Wind** | Luminosity | Snow |
|---|---|---|---|---|---|---|---|
| 1777884916 | 21.11° C | 37% | 1018.4 hPa | 0 mm | - | 768 W/m² | - |
| 1777884617 | 21.11° C | 40% | 1018.4 hPa | 0 mm | - | 763 W/m² | - |
| 1777884316 | 21.11° C | 39% | 1018.4 hPa | 0 mm | - | 756 W/m² | - |
| 1777884017 | 20.56° C | 38% | 1018.4 hPa | 0 mm | - | 748 W/m² | - |
| 1777883718 | 20.56° C | 40% | 1018.3 hPa | 0 mm | - | 738 W/m² | - |
| 1777883416 | 20° C | 43% | 1018.3 hPa | 0 mm | - | 728 W/m² | - |
| 1777883118 | 20° C | 43% | 1018.3 hPa | 0 mm | - | 720 W/m² | - |
| 1777882817 | 19.44° C | 43% | 1018.3 hPa | 0 mm | - | 710 W/m² | - |
| 1777882516 | 19.44° C | 44% | 1018.3 hPa | 0 mm | - | 698 W/m² | - |
| 1777882217 | 19.44° C | 45% | 1018.4 hPa | 0 mm | - | 687 W/m² | - |
| 1777881916 | 18.89° C | 45% | 1018.4 hPa | 0 mm | - | 675 W/m² | - |
| 1777881616 | 18.89° C | 47% | 1018.3 hPa | 0 mm | - | 663 W/m² | - |
| 1777881317 | 18.33° C | 49% | 1018.4 hPa | 0 mm | - | 651 W/m² | - |
| 1777881016 | 17.78° C | 49% | 1018.4 hPa | 0 mm | - | 641 W/m² | - |
| 1777880416 | 17.22° C | 52% | 1018.4 hPa | 0 mm | - | 618 W/m² | - |
| 1777880117 | 17.22° C | 53% | 1018.4 hPa | 0 mm | - | 606 W/m² | - |
| 1777879816 | 16.67° C | 53% | 1018.4 hPa | 0 mm | - | 593 W/m² | - |
| 1777879516 | 16.67° C | 54% | 1018.4 hPa | 0 mm | - | 581 W/m² | - |
| 1777879216 | 16.11° C | 56% | 1018.4 hPa | 0 mm | - | 568 W/m² | - |
| 1777878916 | 16.11° C | 56% | 1018.5 hPa | 0 mm | - | 553 W/m² | - |
| 1777878616 | 15.56° C | 56% | 1018.5 hPa | 0 mm | - | 541 W/m² | - |
| 1777878316 | 15.56° C | 57% | 1018.4 hPa | 0 mm | - | 527 W/m² | - |
| 1777878016 | 15° C | 59% | 1018.3 hPa | 0 mm | - | 513 W/m² | - |
| 1777877716 | 14.44° C | 59% | 1018.3 hPa | 0 mm | - | 498 W/m² | - |
| 1777877416 | 14.44° C | 62% | 1018.2 hPa | 0 mm | - | 485 W/m² | - |
* Rain latest hour (hover to see other rain measurements)
** Current wind speed in m/s (hover to see current wind gust speed)